Showing default

EXPLORER 29 (GEOS 1), 1726

Orbit data source: Space-Track

EXPLORER 29 (GEOS 1), 1726 is a payload satellite owned by GSFC (US) in LEO that was launched on Sat, 06 Nov 1965 UTC via a THOR DELTA E launch vehicle from the Air Force Eastern Test Range (AFETR). Payloads include a variety of satellites, spacecraft, and rockets equipped with specific instruments for various scientific and technological missions. These include communications satellites like Starlink; space stations such as the ISS; scientific satellites like the Hubble; Earth observation satellites from companies like Planet Labs, Umbra, and HawkEye 360; GPS; miniature CubeSats for education and research; and military/defense satellites.

Loading next visibility...
EXPLORER 29 (GEOS 1) details
Identifier
1726, 1965-089A
Orbit
LEO
Last TLE update19 hours ago
Origin
Flag of USGSFC (US)
ManufacturerAPL
MissionCivil Geodetic
Bus & MotorANNA, Unknown motor
Mass176 kg wet, 176 kg dry
Launch date (UTC)
1965-11-06 (59 years ago)
Launch vehicle
THOR DELTA E
Launch site
Air Force Eastern Test Range (AFETR)
Object type
Payload
Rocket body
Debris
Shape & HBROct Cyl + 1 Dome + 1 Rod, 15 m
Radar Cross Section1.519 m², Large (>1 m²)

Expand to show TLE details & history

TLE from 19 hours ago
0 EXPLORER 29 (GEOS 1)
1 01726U 65089A   24355.75382385 -.00000078  00000-0 -29274-4 0  9999
2 01726  59.3801 170.6478 0712848 225.4270 142.3154 11.97070628584603
Epoch: 2024-12-20T18:05Z
Definitive object data (Epoch: 2024-12-20T18:05:30.38Z)
Latitude10.62671°
Longitude175.80355°
Altitude2,164.06 km
Speed6.632 km/s
True Right ascension11h 47m 58s
True Declination10° 34' 29"
Sunlit
Object was in daylight at TLE epoch
Visualization TLE readout
Latitude21.07445°
Longitude-25.43184°
Altitude1,468.257 km
Speed7.23 km/s
Apparent Right ascension23h 02m 26s
Apparent Declination-6° 02' 10"
Sunlit
Object is in daylight
Visualization observer readout
Local Sidereal Time12:01:43
Azimuth25.377° NE
Elevation-53.594°
Doppler factor1
Orbital elements
Apogee altitude2,268.776 km
Perigee altitude1,118.02 km
Semi-major axis8,071.535 km
Eccentricity0.0712848
Inclination59.3801°
RAAN170.6478°
Arg. of periapsis225.427°
True anomaly146.9742°
Mean anomaly142.3154°
Eccentric anomaly144.6769°
Mean motion2.99302 °/min
BSTAR-0.000029274
Orbital period120.28 mins
Loading maneuver chart data...
Loading historical data...
Loading historical data...
Loading historical data...
Loading historical data...
Loading historical data...
Loading historical data...
Loading historical data...

EXPLORER 29 (GEOS 1) Visibility forecast

Observer location: undefined°, undefined

Span
Click to sort rows by Start time (UTC) header in descending order
Start Az.
Max El. time (UTC)
Max El. Az.
Max El.
End time (UTC)
End Az.
25 mins2024-12-21 14:09:49.521Z220.949° SW2024-12-21 14:22:49.521Z344.106° N44.775°2024-12-21 14:34:49.521Z39.979° NE
21 mins2024-12-21 16:19:49.521Z273.036° WNW2024-12-21 16:29:49.521Z330.931° NNW32.255°2024-12-21 16:40:49.521Z39.348° NE
18 mins2024-12-21 18:30:49.521Z311.296° NW2024-12-21 18:39:49.521Z1.584° NNE26.322°2024-12-21 18:48:49.521Z59.652° ENE
19 mins2024-12-21 20:38:49.521Z323.025° NNW2024-12-21 20:48:49.521Z27.43° NE36.867°2024-12-21 20:57:49.521Z105.825° ESE
17 mins2024-12-21 22:45:49.521Z313.47° NW2024-12-21 22:54:49.521Z247.803° W40.508°2024-12-21 23:02:49.521Z165.259° S
20 mins2024-12-22 12:11:49.521Z170.673° S2024-12-22 12:20:49.521Z116.563° SE32.643°2024-12-22 12:31:49.521Z52.847° ENE
|